time_stamp(utc),avg(mph),gust(mph),direction(deg),12m_air_temp(f),sonic_u(cm/s),sonic_v(cm/s),sonic_w(cm/s),pressure,2m_air_temp(f),pyranometer(W/m^2)
"2019-03-25 00:02:06+00",17.5,21.5,,48,-538,-589,10,1018.34,47.5,0
"2019-03-25 00:07:06+00",16.0,19.0,,48,-445,-571,5,1018.39,47.5,0
"2019-03-25 00:12:06+00",14.7,16.7,,48.1,-438,-503,13,1018.46,47.6,0
"2019-03-25 00:17:06+00",16.0,19.0,,48.2,-442,-570,-7,1018.38,47.7,0
"2019-03-25 00:22:06+00",17.8,20.8,,48.2,-459,-653,-7,1018.17,47.7,0
"2019-03-25 00:27:06+00",18.2,20.2,,48.2,-461,-669,3,1018.02,47.7,0
"2019-03-25 00:32:06+00",19.6,23.6,,48.1,-465,-739,15,1017.84,47.6,0
"2019-03-25 00:37:06+00",18.6,21.6,,48.1,-386,-723,8,1017.47,47.6,0
"2019-03-25 00:42:06+00",20.5,22.5,,48.1,-310,-828,0,1017.22,47.6,0
"2019-03-25 00:47:06+00",19.9,22.9,,48.1,-457,-758,1,1017.37,47.6,0
"2019-03-25 00:52:06+00",17.0,20.0,,48,-435,-626,1,1017.88,47.6,0
"2019-03-25 00:57:06+00",20.0,23.0,,48,-565,-712,4,1017.97,47.5,0
"2019-03-25 01:02:06+00",20.8,23.8,,48,-599,-735,-7,1018.04,47.5,0
"2019-03-25 01:07:06+00",18.1,21.1,,47.8,-530,-644,33,1018.12,47.4,0
"2019-03-25 01:12:06+00",16.5,20.5,,47.6,-499,-568,14,1018.29,47.2,0
"2019-03-25 01:17:06+00",18.8,20.8,,47.6,-580,-616,11,1018.12,47.1,0
"2019-03-25 01:22:06+00",14.6,18.6,,47.5,-448,-495,20,1018.15,47,0
"2019-03-25 01:27:06+00",14.2,15.2,,47.5,-412,-504,12,1018.13,47,0
"2019-03-25 01:32:06+00",13.6,16.6,,47.6,-432,-429,7,1018.33,47,0
"2019-03-25 01:37:06+00",13.8,15.8,,47.7,-420,-458,0,1018.24,47.1,0
"2019-03-25 01:42:06+00",12.6,14.6,,47.6,-382,-425,13,1018.15,47,0
"2019-03-25 01:47:06+00",12.1,14.1,,47.7,-386,-383,22,1018.02,47,0
"2019-03-25 01:52:06+00",15.5,18.5,,47.9,-487,-492,16,1017.92,47.2,0
"2019-03-25 01:57:06+00",15.5,18.5,,47.7,-444,-542,2,1017.84,47.1,0
"2019-03-25 02:02:06+00",12.9,14.9,,47.5,-383,-443,8,1017.83,47,0
"2019-03-25 02:07:06+00",13.6,15.6,,47.4,-411,-455,6,1017.81,46.9,0
"2019-03-25 02:12:06+00",13.4,15.4,,47.5,-406,-445,29,1017.87,46.9,0
"2019-03-25 02:17:06+00",14.5,17.5,,47.4,-391,-530,-3,1017.68,46.9,0
"2019-03-25 02:22:06+00",15.1,18.1,,47.4,-457,-512,6,1017.65,46.8,0
"2019-03-25 02:27:06+00",15.8,18.8,,47.5,-471,-545,11,1017.74,46.9,0
"2019-03-25 02:32:06+00",15.8,17.8,,47.4,-450,-558,1,1017.68,46.8,0
"2019-03-25 02:37:06+00",16.3,19.3,,47.3,-482,-571,6,1017.59,46.7,0
"2019-03-25 02:42:06+00",17.3,19.3,,47.2,-519,-589,8,1017.42,46.7,0
"2019-03-25 02:47:06+00",17.9,19.9,,47.2,-536,-611,-1,1017.37,46.6,0
"2019-03-25 02:52:06+00",16.9,19.9,,47.1,-515,-567,10,1017.32,46.5,0
"2019-03-25 02:57:06+00",15.6,17.6,,47.1,-467,-525,5,1017.27,46.5,0
"2019-03-25 03:02:06+00",12.8,14.8,,46.9,-370,-444,12,1017.38,46.5,0
"2019-03-25 03:07:06+00",12.4,14.4,,46.9,-334,-461,16,1017.3,46.4,0
"2019-03-25 03:12:06+00",14.3,17.3,,47,-404,-514,8,1017.27,46.4,0
"2019-03-25 03:17:06+00",16.6,19.6,,47.1,-462,-594,-2,1017.14,46.5,0
"2019-03-25 03:22:06+00",15.8,17.8,,47,-479,-540,8,1017.15,46.5,0
"2019-03-25 03:27:06+00",15.0,19.0,,46.8,-475,-460,4,1017.19,46.4,0
"2019-03-25 03:32:06+00",15.2,17.2,,46.6,-508,-408,11,1017.2,46.3,0
"2019-03-25 03:37:06+00",13.4,15.4,,46.4,-445,-359,6,1017.15,46.1,0
"2019-03-25 03:42:06+00",12.0,13.0,,46.3,-404,-325,16,1017.07,45.9,0
"2019-03-25 03:47:06+00",10.2,11.2,,46.1,-362,-259,20,1017.18,45.8,0
"2019-03-25 03:52:06+00",9.6,11.6,,46.1,-366,-220,16,1017.14,45.7,0
"2019-03-25 03:57:06+00",9.1,10.1,,46.2,-389,-155,10,1017.26,45.6,0
"2019-03-25 04:02:06+00",7.7,8.7,,46.2,-327,-117,25,1017.26,45.5,0
"2019-03-25 04:07:06+00",8.4,9.4,,46.1,-348,-92,12,1017.14,45.4,0
"2019-03-25 04:12:06+00",8.8,9.8,,46,-390,-157,5,1017.16,45.4,0
"2019-03-25 04:17:06+00",7.2,8.2,,46,-314,-137,10,1017.04,45.3,0
"2019-03-25 04:22:06+00",6.8,7.8,,45.9,-288,-139,8,1016.89,45.1,0
"2019-03-25 04:27:06+00",7.7,8.7,,45.9,-330,-162,11,1016.95,45,0
"2019-03-25 04:32:06+00",8.1,9.1,,45.9,-352,-140,9,1016.92,45,0
"2019-03-25 04:37:06+00",8.7,9.7,,45.9,-361,-63,7,1017.06,44.9,0
"2019-03-25 04:42:06+00",7.2,8.2,,45.9,-309,-17,11,1016.87,44.9,0
"2019-03-25 04:47:06+00",7.0,8.0,,45.9,-293,-56,7,1016.93,44.8,0
"2019-03-25 04:52:06+00",6.3,7.3,,45.9,-275,-125,8,1017.05,44.6,0
"2019-03-25 04:57:06+00",7.7,8.7,,45.7,-282,-175,9,1017.21,44.5,0
"2019-03-25 05:02:06+00",8.0,8.0,,45.6,-284,-194,9,1017.05,44.5,0
"2019-03-25 05:07:06+00",6.7,7.7,,45.7,-267,-139,7,1016.96,44.5,0
"2019-03-25 05:12:06+00",6.2,6.2,,45.9,-270,-120,15,1016.94,44.5,0
"2019-03-25 05:17:06+00",5.7,5.7,,45.7,-181,-180,1,1016.87,44.4,0
"2019-03-25 05:22:06+00",5.9,6.9,,45.7,-185,-190,0,1016.76,44.3,0
"2019-03-25 05:27:06+00",6.1,6.1,,46.1,-154,-216,1,1016.73,44.2,0
"2019-03-25 05:32:06+00",6.4,7.4,,45.6,-176,-217,2,1016.78,44.1,0
"2019-03-25 05:37:06+00",4.8,4.8,,45.6,-169,-111,8,1016.8,44.2,0
"2019-03-25 05:42:06+00",5.0,6.0,,45.6,-109,-179,-5,1016.5,44.3,0
"2019-03-25 05:47:06+00",5.4,6.4,,45.5,-149,-186,8,1016.65,44.4,0
"2019-03-25 05:52:06+00",3.9,4.9,,45.5,-36,-158,1,1016.31,44.5,0
"2019-03-25 05:57:06+00",3.8,4.8,,45.6,-158,-17,7,1016.6,44.5,0
"2019-03-25 06:02:06+00",4.0,5.0,,45.5,-160,-58,7,1016.53,44.5,0
"2019-03-25 06:07:06+00",5.7,5.7,,45.9,-179,-156,9,1016.65,44.4,0
"2019-03-25 06:12:06+00",6.6,7.6,,45.6,-79,-260,-9,1016.52,44.4,0
"2019-03-25 06:17:06+00",4.4,4.4,,45.6,-100,-159,-3,1016.46,44.5,0
"2019-03-25 06:22:06+00",4.7,4.7,,45.9,-127,-158,3,1016.42,44.4,0
"2019-03-25 06:27:06+00",7.3,8.3,,45.7,-147,-269,-1,1016.54,44.3,0
"2019-03-25 06:32:06+00",7.0,7.0,,45.8,-152,-261,-1,1016.46,44.2,0
"2019-03-25 06:37:06+00",5.6,6.6,,45.6,-122,-208,-4,1016.25,44.1,0
"2019-03-25 06:42:06+00",5.7,5.7,,46.1,-114,-207,-8,1016.09,44.1,0
"2019-03-25 06:47:06+00",6.6,7.6,,45.8,-110,-255,-10,1016.28,44.2,0
"2019-03-25 06:52:06+00",6.0,7.0,,46.3,-146,-220,-4,1016.17,44.1,0
"2019-03-25 06:57:06+00",5.0,5.0,,46.2,-126,-176,-1,1016.05,44,0
"2019-03-25 07:02:06+00",3.9,3.9,,46.4,-124,-135,6,1015.89,43.9,0
"2019-03-25 07:07:06+00",3.5,3.5,,46.1,-90,-112,3,1015.83,43.9,0
"2019-03-25 07:12:06+00",3.5,3.5,,46.7,-103,-98,3,1015.85,44,0
"2019-03-25 07:17:06+00",6.3,7.3,,46.5,-41,-259,-1,1015.84,44.1,0
"2019-03-25 07:22:06+00",5.2,6.2,,45.6,-47,-206,-4,1015.71,44.3,0
"2019-03-25 07:27:06+00",3.6,3.6,,45.5,-57,-132,-2,1015.55,44.3,0
"2019-03-25 07:32:06+00",4.1,5.1,,45.6,-21,-164,1,1015.5,44.3,0
"2019-03-25 07:37:06+00",3.5,4.5,,45.2,-33,-134,1,1015.47,44.3,0
"2019-03-25 07:42:06+00",2.5,2.5,,45.1,-62,-79,1,1015.29,44.3,0
"2019-03-25 07:47:06+00",2.2,2.2,,45.1,-76,-48,0,1015.36,44.2,0
"2019-03-25 07:52:06+00",2.6,3.6,,45,-74,-83,3,1015.33,44.2,0
"2019-03-25 07:57:06+00",3.1,3.1,,45,-75,-96,4,1015.21,44,0
"2019-03-25 08:02:06+00",3.1,3.1,,45.1,-93,-77,1,1015.18,43.9,0
"2019-03-25 08:07:06+00",3.2,3.2,,45.1,-132,-55,2,1015.21,43.9,0
"2019-03-25 08:12:06+00",4.7,4.7,,45.2,-177,-100,7,1015.28,43.8,0
"2019-03-25 08:17:06+00",4.8,5.8,,45.4,-175,-106,9,1015.16,43.7,0
"2019-03-25 08:22:06+00",5.9,5.9,,45.9,-222,-125,7,1015.27,43.6,0
"2019-03-25 08:27:06+00",5.5,5.5,,45.8,-202,-121,9,1015.14,43.6,0
"2019-03-25 08:32:06+00",6.0,7.0,,45.7,-210,-143,12,1015.05,43.7,0
"2019-03-25 08:37:06+00",6.4,7.4,,45.8,-209,-166,6,1014.97,43.8,0
"2019-03-25 08:42:06+00",6.8,6.8,,45.9,-211,-186,5,1015.04,43.9,0
"2019-03-25 08:47:06+00",6.4,7.4,,45.7,-199,-181,4,1015.14,44.1,0
"2019-03-25 08:52:06+00",5.5,6.5,,45.4,-173,-179,3,1015.08,44.2,0
"2019-03-25 08:57:06+00",5.4,5.4,,45.3,-153,-179,2,1015.07,44.3,0
"2019-03-25 09:02:06+00",4.9,5.9,,45.1,-138,-165,5,1014.99,44.3,0
"2019-03-25 09:07:06+00",5.3,6.3,,45.1,-134,-191,6,1015.13,44.3,0
"2019-03-25 09:12:06+00",6.4,7.4,,45.1,-161,-228,1,1015.16,44.2,0
"2019-03-25 09:17:06+00",6.7,6.7,,45.1,-174,-236,2,1015.23,44.2,0
"2019-03-25 09:22:06+00",6.4,7.4,,45.1,-174,-220,-1,1015.11,44.2,0
"2019-03-25 09:27:06+00",6.8,7.8,,45.3,-216,-188,0,1015.2,44.2,0
"2019-03-25 09:32:06+00",5.8,6.8,,45.4,-172,-164,-10,1015.09,44.2,0
"2019-03-25 09:37:06+00",6.5,7.5,,45.5,-158,-236,-3,1014.97,44.3,0
"2019-03-25 09:42:06+00",6.4,7.4,,45.6,-187,-219,0,1015.04,44.3,0
"2019-03-25 09:47:06+00",6.5,7.5,,45.7,-204,-195,0,1015.06,44.3,0
"2019-03-25 09:52:06+00",6.5,7.5,,45.7,-206,-200,-1,1015.05,44.3,0
"2019-03-25 09:57:06+00",7.6,7.6,,45.7,-239,-204,4,1015.17,44.3,0
"2019-03-25 10:02:06+00",8.1,9.1,,45.7,-259,-230,0,1015.28,44.3,0
"2019-03-25 10:07:06+00",8.2,9.2,,45.7,-263,-241,-2,1015.37,44.5,0
"2019-03-25 10:12:06+00",8.0,9.0,,45.9,-258,-226,4,1015.41,44.7,0
"2019-03-25 10:17:06+00",7.9,8.9,,45.8,-250,-233,-2,1015.34,44.7,0
"2019-03-25 10:22:06+00",6.9,7.9,,45.6,-189,-242,-3,1015.32,44.8,0
"2019-03-25 10:27:06+00",7.0,8.0,,45.5,-153,-262,-2,1015.08,44.7,0
"2019-03-25 10:32:06+00",7.9,8.9,,45.6,-141,-302,-9,1014.93,44.7,0
"2019-03-25 10:37:06+00",7.2,8.2,,45.8,-175,-264,1,1015.01,44.7,0
"2019-03-25 10:42:06+00",7.5,8.5,,45.7,-239,-232,0,1015.28,44.7,0
"2019-03-25 10:47:06+00",9.0,10.0,,45.8,-275,-298,1,1015.27,44.6,0
"2019-03-25 10:52:06+00",8.1,9.1,,45.8,-253,-249,1,1015.26,44.7,0
"2019-03-25 10:57:06+00",8.3,9.3,,45.7,-259,-250,-3,1015.29,44.8,0
"2019-03-25 11:02:06+00",8.0,9.0,,45.8,-233,-279,2,1015.29,44.9,0
"2019-03-25 11:07:06+00",8.5,9.5,,45.9,-261,-277,-1,1015.38,45,0
"2019-03-25 11:12:06+00",8.3,9.3,,46,-293,-213,10,1015.45,45.1,0
"2019-03-25 11:17:06+00",8.5,9.5,,46.1,-307,-203,12,1015.6,45.1,0
"2019-03-25 11:22:06+00",7.9,8.9,,46.3,-272,-201,5,1015.46,45.3,0
"2019-03-25 11:27:06+00",7.9,8.9,,46.3,-304,-178,14,1015.61,45.4,0
"2019-03-25 11:32:06+00",6.7,7.7,,46.4,-270,-144,10,1015.54,45.4,0
"2019-03-25 11:37:06+00",5.3,6.3,,46.4,-202,-105,-6,1015.33,45.4,0
"2019-03-25 11:42:06+00",5.6,6.6,,46.4,-225,-118,8,1015.39,45.5,0
"2019-03-25 11:47:06+00",5.2,5.2,,46.3,-202,-111,10,1015.43,45.5,0
"2019-03-25 11:52:06+00",5.6,6.6,,46.2,-180,-142,2,1015.39,45.5,0
"2019-03-25 11:57:06+00",4.4,5.4,,46.2,-172,-94,6,1015.43,45.6,0
"2019-03-25 12:02:06+00",5.0,6.0,,46.2,-172,-121,1,1015.38,45.6,0
"2019-03-25 12:07:06+00",4.2,5.2,,46.2,-159,-92,12,1015.41,45.6,0
"2019-03-25 12:12:06+00",4.1,5.1,,46.2,-168,48,9,1015.49,45.7,0
"2019-03-25 12:17:06+00",2.7,3.7,,46.2,-104,-16,11,1015.42,45.7,0
"2019-03-25 12:22:06+00",3.1,3.1,,46.2,-120,-24,2,1015.4,45.8,9.2
"2019-03-25 12:27:06+00",2.6,2.6,,46.3,-101,24,6,1015.25,46,15.7
"2019-03-25 12:32:06+00",2.7,2.7,,46.5,-105,22,4,1015.24,46.2,17.1
"2019-03-25 12:37:06+00",2.6,2.6,,46.7,-110,3,6,1015.33,46.4,32.6
"2019-03-25 12:42:06+00",2.4,2.4,,46.9,-94,18,4,1015.28,46.8,65.7
"2019-03-25 12:47:06+00",2.0,2.0,,47,-75,24,6,1015.25,47.2,41.4
"2019-03-25 12:52:06+00",1.5,1.5,,47.2,-58,20,7,1015.25,47.7,38.2
"2019-03-25 12:57:06+00",1.3,2.3,,47.5,-46,36,6,1015.29,48.3,36.5
"2019-03-25 13:02:06+00",0.0,0.0,,47.8,-67,5,-1,1015.35,48.7,26.4
"2019-03-25 13:07:06+00",0.0,0.0,,48,-76,40,4,1015.58,49,19.6
"2019-03-25 13:12:06+00",0.0,0.0,,48.1,-60,67,6,1015.58,49.1,27.6
"2019-03-25 13:17:06+00",0.0,0.0,,48.2,-87,87,5,1015.66,49.2,25
"2019-03-25 13:22:06+00",0.0,0.0,,48.3,-81,57,11,1015.83,49.2,30
"2019-03-25 13:27:06+00",2.4,2.4,,48.4,-81,48,1,1015.89,49.2,31.5
"2019-03-25 13:32:06+00",3.0,4.0,,48.4,-100,69,8,1015.91,49.4,35.4
"2019-03-25 13:37:06+00",3.8,3.8,,48.4,-144,68,28,1016.11,49.4,39
"2019-03-25 13:42:06+00",3.2,4.2,,48.5,-108,71,13,1016.11,49.4,40.4
"2019-03-25 13:47:06+00",1.9,2.9,,48.5,-52,35,5,1016.06,49.5,69.5
"2019-03-25 13:52:06+00",4.1,5.1,,48.6,-173,25,16,1016.27,49.8,83.2
"2019-03-25 13:57:06+00",3.0,3.0,,48.6,-122,2,-3,1016.2,50,96.2
"2019-03-25 14:02:06+00",3.9,3.9,,48.8,-137,90,8,1016.37,50.2,117.2
"2019-03-25 14:07:06+00",4.3,4.3,,49.2,-120,128,9,1016.3,50.6,143.7
"2019-03-25 14:12:06+00",4.0,5.0,,49.3,-104,130,0,1016.44,50.7,94.1
"2019-03-25 14:17:06+00",3.7,4.7,,49.4,-113,105,17,1016.46,50.8,92.8
"2019-03-25 14:22:06+00",2.6,3.6,,49.6,-13,104,-1,1016.41,50.9,99.1
"2019-03-25 14:27:06+00",2.1,3.1,,50.3,-33,75,9,1016.46,51.2,105.5
"2019-03-25 14:32:06+00",7.2,9.2,,51.7,197,226,1,1016.44,52.1,143.1
"2019-03-25 14:37:06+00",7.9,9.9,,52.7,220,244,-11,1016.64,53.5,198.6
"2019-03-25 14:42:06+00",8.7,10.7,,52.9,316,209,19,1016.72,54.1,197.3
"2019-03-25 14:47:06+00",12.2,14.2,,52.8,432,312,5,1016.79,54.1,174.9
"2019-03-25 14:52:06+00",12.6,14.6,,52.5,459,311,28,1016.7,53.9,282.8
"2019-03-25 14:57:06+00",11.9,13.9,,52.8,392,328,44,1016.74,54.8,223.5
"2019-03-25 15:02:06+00",15.2,17.2,,53,537,395,27,1016.53,55.6,412.6
"2019-03-25 15:07:06+00",17.7,18.7,,52.6,611,478,12,1016.51,55.1,205.3
"2019-03-25 15:12:06+00",13.6,15.6,,53.1,518,309,40,1016.47,55.5,368
"2019-03-25 15:17:06+00",14.5,16.5,,53,518,375,26,1016.5,55.8,416
"2019-03-25 15:22:06+00",14.5,15.5,,53.1,535,348,42,1016.47,56.5,429.5
"2019-03-25 15:27:06+00",14.0,16.0,,53.3,509,346,24,1016.57,56.9,400.8
"2019-03-25 15:32:06+00",12.3,14.3,,53.6,472,275,86,1016.59,57,466.6
"2019-03-25 15:37:06+00",14.3,16.3,,53.8,587,258,35,1016.44,57.5,443.2
"2019-03-25 15:42:06+00",14.6,16.6,,53.6,621,236,20,1016.29,57.2,317.7
"2019-03-25 15:47:06+00",15.6,18.6,,53.4,671,227,21,1016.31,56.9,426
"2019-03-25 15:52:06+00",15.7,19.7,,53.8,630,305,45,1016.33,57.3,392.8
"2019-03-25 15:57:06+00",14.6,18.6,,54.1,603,256,36,1016.33,57.5,393.1
"2019-03-25 16:02:06+00",14.9,17.9,,54.1,614,279,72,1016.28,57.9,484
"2019-03-25 16:07:06+00",16.3,18.3,,53.6,707,240,50,1016.32,57.7,436.2
"2019-03-25 16:12:06+00",15.5,18.5,,53.5,610,334,16,1016.36,57.3,411.4
"2019-03-25 16:17:06+00",17.7,20.7,,53.4,744,317,23,1016.24,57.5,496.8
"2019-03-25 16:22:06+00",14.7,18.7,,53.3,604,267,66,1016.48,57.1,343.1
"2019-03-25 16:27:06+00",14.9,17.9,,53.3,592,320,43,1016.52,57.1,410.4
"2019-03-25 16:32:06+00",17.0,20.0,,52.9,646,403,40,1016.75,56.3,310.5
"2019-03-25 16:37:06+00",16.1,18.1,,52.7,588,392,34,1016.8,55.8,396.9
"2019-03-25 16:42:06+00",17.2,20.2,,52.8,656,403,23,1016.63,55.5,346.7
"2019-03-25 16:47:06+00",14.2,16.2,,53.2,588,245,53,1016.64,55.8,319.5
"2019-03-25 16:52:06+00",15.3,17.3,,53.3,613,295,74,1016.74,56.2,219.3
"2019-03-25 16:57:06+00",15.7,17.7,,52.3,617,338,13,1016.95,55.3,180.9
"2019-03-25 17:02:06+00",15.4,17.4,,52.7,637,283,67,1016.91,55.2,248.3
"2019-03-25 17:07:06+00",15.0,18.0,,52.8,597,296,25,1016.83,55.4,280
"2019-03-25 17:12:06+00",16.6,19.6,,52.7,699,275,33,1016.82,55.8,273.3
"2019-03-25 17:17:06+00",16.2,19.2,,52.5,655,311,46,1016.97,55.6,267.2
"2019-03-25 17:22:06+00",16.8,18.8,,52.5,706,292,31,1016.82,55.5,310
"2019-03-25 17:27:06+00",18.4,20.4,,52.3,742,365,36,1016.89,55.3,318.9
"2019-03-25 17:32:06+00",17.5,19.5,,51.9,722,327,45,1016.78,54.9,189.6
"2019-03-25 17:37:06+00",16.2,19.2,,51.9,673,281,40,1016.73,54.4,151.4
"2019-03-25 17:42:06+00",15.8,18.8,,51.8,663,274,40,1016.65,54.1,169.9
"2019-03-25 17:47:06+00",17.0,19.0,,51.5,715,299,5,1016.65,53.7,149.8
"2019-03-25 17:52:06+00",17.7,21.7,,51.5,769,275,29,1016.68,53.5,135.7
"2019-03-25 17:57:06+00",14.9,15.9,,51.2,631,229,83,1016.68,53.1,130
"2019-03-25 18:02:06+00",18.0,22.0,,50.9,758,287,26,1016.62,52.8,103.6
"2019-03-25 18:07:06+00",18.7,22.7,,50.3,802,293,49,1016.61,52.1,94.4
"2019-03-25 18:12:06+00",17.7,21.7,,50,760,287,27,1016.58,51.7,114.9
"2019-03-25 18:17:06+00",16.5,19.5,,50.1,675,296,50,1016.43,51.8,129.6
"2019-03-25 18:22:06+00",15.3,17.3,,49.9,649,254,64,1016.45,51.7,142.9
"2019-03-25 18:27:06+00",17.9,20.9,,49.5,745,328,31,1016.31,51.7,158.5
"2019-03-25 18:32:06+00",16.9,19.9,,49.6,681,328,55,1016.36,51.3,150.3
"2019-03-25 18:37:06+00",18.6,21.6,,49.4,738,367,22,1016.19,51.1,139.2
"2019-03-25 18:42:06+00",16.7,18.7,,49.5,703,299,36,1016.21,51.3,148.7
"2019-03-25 18:47:06+00",17.4,19.4,,49.2,703,337,13,1016.13,51.3,137.8
"2019-03-25 18:52:06+00",17.9,19.9,,49,740,321,22,1016.15,51,113.5
"2019-03-25 18:57:06+00",17.4,21.4,,49.1,710,330,39,1016.24,50.7,125.8
"2019-03-25 19:02:06+00",17.9,21.9,,49,729,342,35,1016.44,50.7,129.6
"2019-03-25 19:07:06+00",14.5,17.5,,49,586,278,83,1016.48,50.5,98.2
"2019-03-25 19:12:06+00",15.9,18.9,,48.9,622,345,44,1016.4,50.3,62.5
"2019-03-25 19:17:06+00",15.2,19.2,,49,593,321,38,1016.42,50.1,80.5
"2019-03-25 19:22:06+00",16.9,18.9,,48.9,654,371,12,1016.41,50.1,84
"2019-03-25 19:27:06+00",15.0,16.0,,49.2,567,351,35,1016.42,50.3,87.5
"2019-03-25 19:32:06+00",14.6,18.6,,49.2,561,314,46,1016.42,50.3,73.7
"2019-03-25 19:37:06+00",14.5,17.5,,49.3,583,286,37,1016.34,50.4,61.6
"2019-03-25 19:42:06+00",17.5,19.5,,49,731,315,16,1016.34,50.2,59.1
"2019-03-25 19:47:06+00",16.9,18.9,,48.7,692,327,24,1016.24,49.8,57.9
"2019-03-25 19:52:06+00",16.0,19.0,,48.5,669,287,61,1016.21,49.5,44.9
"2019-03-25 19:57:06+00",17.6,21.6,,48.3,708,353,66,1016.07,49.2,36.3
"2019-03-25 20:02:06+00",15.5,18.5,,48.3,631,297,67,1015.9,49,26.6
"2019-03-25 20:07:06+00",18.2,21.2,,48.1,712,383,47,1015.97,48.7,30.3
"2019-03-25 20:12:06+00",15.7,18.7,,47.9,623,319,65,1016.14,48.6,20.3
"2019-03-25 20:17:06+00",17.0,20.0,,47.7,677,356,30,1016.11,48.3,14.1
"2019-03-25 20:22:06+00",17.6,21.6,,47.6,689,373,24,1015.99,48.1,5.6
"2019-03-25 20:27:06+00",17.1,20.1,,47.5,703,315,35,1015.86,47.9,7
"2019-03-25 20:32:06+00",18.8,21.8,,47.5,784,331,29,1015.85,47.8,14.1
"2019-03-25 20:37:06+00",15.8,17.8,,47.5,634,299,47,1015.81,47.7,5
"2019-03-25 20:42:06+00",18.3,21.3,,47.3,746,340,24,1015.89,47.6,0.5
"2019-03-25 20:47:06+00",19.7,21.7,,47.1,798,375,20,1015.62,47.4,0.3
"2019-03-25 20:52:06+00",17.7,20.7,,46.8,753,297,39,1015.77,47.1,1
"2019-03-25 20:57:06+00",17.9,19.9,,46.7,774,273,28,1015.75,47,3.6
"2019-03-25 21:02:06+00",15.7,16.7,,46.7,668,243,32,1015.68,47,12.3
"2019-03-25 21:07:06+00",16.2,19.2,,46.7,700,224,45,1015.53,47,13.8
"2019-03-25 21:12:06+00",13.7,15.7,,46.7,591,186,88,1015.63,47,13.7
"2019-03-25 21:17:06+00",13.2,15.2,,46.7,563,201,50,1015.65,47.1,11.4
"2019-03-25 21:22:06+00",17.3,20.3,,46.6,714,309,20,1015.55,47,18.4
"2019-03-25 21:27:06+00",13.7,16.7,,46.6,578,244,40,1015.61,47,22.3
"2019-03-25 21:32:06+00",14.7,17.7,,46.6,597,284,43,1015.6,47,14.2
"2019-03-25 21:37:06+00",12.6,14.6,,46.6,515,236,16,1015.77,47,3.6
"2019-03-25 21:42:06+00",13.0,15.0,,46.6,543,222,24,1015.88,46.9,1
"2019-03-25 21:47:06+00",11.9,14.9,,46.7,486,215,31,1015.82,46.9,0
"2019-03-25 21:52:06+00",12.6,14.6,,46.8,528,209,18,1015.93,46.9,0
"2019-03-25 21:57:06+00",11.0,13.0,,46.7,435,219,28,1016.14,46.8,0
"2019-03-25 22:02:06+00",10.8,11.8,,46.6,443,189,11,1016.07,46.7,0
"2019-03-25 22:07:06+00",8.4,9.4,,46.6,341,147,28,1016.23,46.7,0
"2019-03-25 22:12:06+00",10.5,12.5,,46.6,420,203,20,1016.11,46.7,0
"2019-03-25 22:17:06+00",10.4,11.4,,46.5,454,119,27,1016.07,46.6,0
"2019-03-25 22:22:06+00",11.2,12.2,,46.4,483,141,23,1016,46.5,0
"2019-03-25 22:27:06+00",9.8,10.8,,46.4,422,120,28,1016.18,46.4,0
"2019-03-25 22:32:06+00",9.0,11.0,,46.3,374,142,25,1016.28,46.3,0
"2019-03-25 22:37:06+00",9.0,10.0,,46.3,385,113,15,1016.08,46.3,0
"2019-03-25 22:42:06+00",8.9,9.9,,46.4,361,159,18,1016.15,46.3,0
"2019-03-25 22:47:06+00",8.2,10.2,,46.4,330,141,23,1016.19,46.2,0
"2019-03-25 22:52:06+00",8.8,9.8,,46.3,373,111,22,1016.14,46.1,0
"2019-03-25 22:57:06+00",8.6,10.6,,46.3,344,156,22,1016.1,46.1,0
"2019-03-25 23:02:06+00",9.5,11.5,,46.2,373,185,29,1016.03,46,0
"2019-03-25 23:07:06+00",10.2,11.2,,46.1,392,217,24,1016.03,45.9,0
"2019-03-25 23:12:06+00",8.8,11.8,,46.1,338,189,29,1016.03,45.9,0
"2019-03-25 23:17:06+00",7.3,8.3,,46.2,266,165,19,1016.21,45.9,0
"2019-03-25 23:22:06+00",6.9,8.9,,46.2,268,141,12,1016.26,45.9,0
"2019-03-25 23:27:06+00",9.1,10.1,,46.2,343,197,21,1016.21,45.9,0
"2019-03-25 23:32:06+00",9.8,11.8,,46.2,348,247,32,1016.13,45.8,0
"2019-03-25 23:37:06+00",10.8,11.8,,46.1,398,260,21,1016.09,45.7,0
"2019-03-25 23:42:06+00",9.7,11.7,,46,288,281,15,1016.05,45.5,0
"2019-03-25 23:47:06+00",11.8,12.8,,45.8,337,346,3,1016.14,45.2,0
"2019-03-25 23:52:06+00",11.3,12.3,,45.6,294,370,10,1016.05,45.1,0
"2019-03-25 23:57:06+00",11.4,13.4,,45.4,313,355,8,1016.06,44.9,0
